Погода в Омске

Погода в Омске : погода сейчас, прогноз погоды и архив. Всё, что Вы хотите узнать о погоде в Омске!

Хотите узнать прогноз погоды в Омске? Тогда Вам сюда: Погода в Омске

Поиск расширенной информации на нашем сайте:

Другие новости

Новости СМИ2

Главная страница сайта

Новости сайта

03.07.2017

Напоминаем, что на нашем специализированном сайте Метеоцентр.Азия вы можете получить высокодетализированные автоматические прогнозы погоды по пунктам России, СНГ и мира в авиационном формате (включающие направление и скорость ветра, видимость, явления погоды, количество и форму облачности, нижнюю и верхнюю границу облачности).

Рекомендуем: Оптовка: печное литье балезино.

Погода в Омске - сегодня

Время (UTC), дата Ветер
(°,м/с) 
Видим.   Явления Облачность Т
(°С)
Тd
(°С)
f(%) Тe
(°С)
Pmin
(гПа)
dP
(гПа)
Po
(мм)
O2
(г/м3)
Тmin Tmax R s Состояние
почвы
18 24.07.17 270 (З) 10 км    1/0 верхняя 
[Ci fib]
+19.1 +14.3 74 +28  1003.1  0.3  742  276           
21 24.07.17 280 (З) 10 км    ясно 
+17.7 +14.8 83 +28  1003.6  0.4  742  278           
00 25.07.17 220 (ЮЗ) 8000 м  дымка  9/4 600 м средняя 
[Sc|Ac trans]
+16 +14.3 90 +25  1003.9  0.3  742  280           
03 25.07.17 230 (ЮЗ) 20000 м    4/3 300 м верхняя 
[St|Ci]
+20.9 +15.8 73 +31  1003.9  0.1  742  274  +16         
06 25.07.17 240 (ЮЗ) 20000 м    8/8 870 м 
[Cu med, cong]
+23.4 +15.1 60 +33  1004.1  0.3  743  272           
09 25.07.17 310 (СЗ) 20000 м    8/6 600 м верхняя 
[Cu med, cong|Ci fib]
+26.1 +14.5 49 +34  1003.5  -0.4  742  270           
12 25.07.17 250 (З) 20000 м    10/8 600 м кучево-дожд., средняя, верхняя 
[Cb cap|Ac trans|Ci fib]
+25.4 +14.8 52 +34  1003.5  742  271           
15 25.07.17 240 (ЮЗ) 20000 м    10/0 средняя, верхняя 
[Ac As|Ci fib]
+22.7 +14.8 61 +31  1003.2  -0.4  742  273    +26.5       
18 25.07.17 300 (СЗ) 10 км  в посл. час ливневой дождь  10/6 600 м кучево-дожд., средняя 
[Cb cap|Ac und]
+20.7 +16.2 75 +32  1004.2  0.9  743  275           
21 25.07.17 тихо ()   10 км  {ливн. осадки}  10/3 600 м кучево-дожд., средняя, верхняя 
[Cb cap|Ac trans|Ci fib]
+18.4 +16.4 88 +30  1004.1  -0.1  743  277           
00 26.07.17 тихо ()   20000 м  местами туман поземный{ливн. осадки}  3/0 верхняя 
[Ci fib]
+16.6 +15.5 93 +26  1004.7  0.3  743  279           
03 26.07.17 040 (СВ) 20000 м  {туман}  8/8 450 м 
[St]
+20.3 +17.1 82 +33  1004.6  743  275  +16.1    0.0     
06 26.07.17 080 (В) 20000 м  {туман}  8/3 600 м средняя, верхняя 
[Cu med, cong|Ac cast|Cc]
+23.5 +16.3 64 +35  1004.3  0.1  743  272           
09 26.07.17 100 (В) 20000 м  в посл. час гроза  9/5 600 м кучево-дожд., средняя, верхняя 
[Cb cap|Ac lent|Cc]
+25.2 +16.4 58 +37  1003.8  -0.4  743  270           
12 26.07.17 100 (В) 20000 м  {гроза}  10/3 600 м средняя, верхняя 
[Cu med, cong|Ac trans|Ci fib]
+24.8 +15.9 58 +35  1003.6  -0.3  742  271           
15 26.07.17 тихо ()   20000 м    10/3 600 м средняя, верхняя 
[Sc|Ac trans|Ci fib]
+22.4 +16.9 71 +35  1004  0.3  743  273    +25.6       
18 26.07.17 020 (С) 4000 м  слаб. ливневой дождь  9/6 600 м кучево-дожд., средняя 
[Cb cap|Ac trans]
+20.3 +17.3 83 +34  1004.2  0.1  743  275           
21 26.07.17 040 (СВ) 10 км  {ливн. осадки}  8/3 600 м кучево-дожд., средняя 
[Cb cap|Ac trans]
+20.5 +16.1 76 +31  1002.9  -1.2  742  274           
00 27.07.17 020 (С) 20000 м  {ливн. осадки}  10/8 600 м кучево-дожд., верхняя 
[Cb cap|Ci fib]
+19 +16.1 83 +31  1002.8  -0.2  742  276           
03 27.07.17 020 (С) 20000 м  в посл. час ливневой дождь  10/10 300 м кучево-дожд. 
[Cb cap]
+19.4 +17.2 87 +33  1002.8  742  275  +18.4       
06 27.07.17 330 (СЗ) 2600 м  слаб. ливневой дождь  10/10 450 м кучево-дожд. 
[Cb cap]
+16.6 +15 90 +26  1004.1  1.1  742  279  +16.6         
12 27.07.17 290 (З) 20000 м  {гроза, ливн. осадки}  9/6 600 м кучево-дожд., средняя 
[Cb cap|Ac cuf]
+18.9 +16 83 +31  1002.4  0.1  741  276           
15 27.07.17 270 (З) 20000 м    9/3 600 м верхняя 
[Sc diur, vesp|Ci ing]
+18 +15.2 84 +28  1001.8  -0.6  741  277    +19.6  20     
18 27.07.17 250 (З) 10 км    3/0 верхняя 
[Ci fib]
+17.4 +14.9 85 +28  1001.9  0.1  741  277           
21 27.07.17 240 (ЮЗ) 10 км    4/0 верхняя 
[Ci fib]
+17 +14.3 84 +26  1001.6  -0.3  741  278           
Время (UTC), дата Ветер
(°,м/с) 
Видим.   Явления Облачность Т
(°С)
Тd
(°С)
f(%) Тe
(°С)
Pmin
(гПа)
dP
(гПа)
Po
(мм)
O2
(г/м3)
Тmin Tmax R s Состояние
почвы

Для получения пояснительной информации подведите курсор к названию столбца.

ПОГОДА в Омске - архив

Всё, что Вы хотите узнать о погоде в Омске - удобно и подробно!

Выберите нужную дату (начиная с 1 января 2015* года) и нажмите кнопку "Найти".
Будут отображены архивные сводки погоды по пункту Омск, начиная с указанной даты.


Отображать данные в формате CSV (для использования в таблицах Excel)


Внимание! Наш архив погоды предназначен исключительно для личного некоммерческого использования в познавательных целях. Если Вам необходимы официальные справки о состоянии погоды (для производственных, юридических, коммерческих и т.п. целей), обращайтесь в органы Росгидромета.

*Примечание: данная дата относится к архиву по метеостанциям СССР (Россия, СНГ, Балтия).
Архив по метеостанциям Зарубежной Европы и Азии (кроме Китая) хранится 10 дней, по другим регионам земного шара (Китай, Африка, Америка, Австралия, Океания) - 1 день.

Омск - район местоположения метеостанции


Название, широта, долгота, высота метеостанции:
Омск (город) 55°ш. 73.4°д. 122 м над ур. моря [Российская Федерация]

Дополнительная информация

В oтличие oт бoльшинства пoгoдных сайтoв мы публикуем пoдрoбную метеoинфoрмацию в детальнoм прoфессиoнальнoм фoрмате.

Характеристики температуры и влажнoсти вoздуха измеряются на высoте 2 м в тени вдали oт зданий и деревьев.
Скoрoсть ветра измеряется на высoте 10 м (на урoвне рoста челoвека скoрoсть ветра ниже в 1.5-2 раза). Если метеoстанция нахoдится в гoрoде или в лесу, тo скoрoсть ветра занижена на 2-4 м/с пo сравнению с oткрытым местoм. Скoрoсть ветра над акватoриями крупных рек и oзёр, а также на вершинах хoлмoв на 2-5 м/с выше, чем в oбычных услoвиях.
Атмoсфернoе давление в разных тoчках местнoсти мoжет значительнo oтличаться oт давления на метеoстанции, в зависимoсти oт услoвий рельефа (при пoдъёме на 10 м давление пoнижается примернo на 1 мм рт.ст.).